Regional Weather Roundup
Issued by NWS Little Rock, AR

Home | Current Version | Previous Version | Graphics & Text | Print | Product List | Glossary On
Versions: 1 2 3 4 5 6 7 8 9 10 11 12 13 14 15 16 17 18 19 20 21 22 23 24 25 26 27 28
000
ASUS44 KLZK 272005
RWRLZK

WEATHER ROUNDUP FOR ARKANSAS
NATIONAL WEATHER SERVICE LITTLE ROCK AR
300 PM CDT FRI MAY 27 2016

NOTE: "FAIR" INDICATES FEW OR NO CLOUDS BELOW 12,000 FEET WITH NO
SIGNIFICANT WEATHER AND/OR OBSTRUCTIONS TO VISIBILITY.

ARZ001-003-010-029-272100-
NORTHWEST ARKANSAS

CITY           SKY/WX    TMP DP  RH WIND       PRES   REMARKS
FAYETTEVILLE   MOSUNNY   75  65  70 SE15G23   29.76S
FORT SMITH     CLOUDY    78  64  61 SE6       29.73S
HARRISON       CLOUDY    71  66  84 SE8       29.79F
BENTONVILLE    CLOUDY    73  64  73 SE6       29.78S
ROGERS         CLOUDY    73  67  81 SE8       29.79R
SILOAM SPGS    CLOUDY    75  61  60 S12G18    29.77S
HIGHFILL       CLOUDY    76  68  76 S7G17     29.77S
SPRINGDALE     PTSUNNY   75  66  73 S6        29.79S
$$

ARZ004-005-016-272100-
NORTH CENTRAL ARKANSAS

CITY           SKY/WX    TMP DP  RH WIND       PRES   REMARKS
BATESVILLE     CLOUDY    73  68  83 SE8G16    29.84S
FLIPPIN        CLOUDY   N/A N/A N/A SE5       29.75F
MTN HOME       CLOUDY    75  68  78 S6        29.78F
$$

ARZ040-041-272100-
WEST CENTRAL ARKANSAS

CITY           SKY/WX    TMP DP  RH WIND       PRES   REMARKS
MENA           CLOUDY    73  66  78 SW7       29.76R
MOUNT IDA      CLOUDY    74  63  68 VRB7G20   29.74F
$$

ARZ009-017-025-026-028-272100-
NORTHEAST ARKANSAS

CITY           SKY/WX    TMP DP  RH WIND       PRES   REMARKS
CORNING          N/A     73  73 100 S16G23    29.86F
JONESBORO      CLOUDY    73  70  90 S14       29.87F
NEWPORT        LGT RAIN  73  72  97 S16       29.87F
WALNUT RIDGE   CLOUDY    75  68  78 S20       29.85F
BLYTHEVILLE    CLOUDY    75  68  78 SW8       29.89F
$$

ARZ022-023-033-042-044-272100-
CENTRAL ARKANSAS

CITY           SKY/WX    TMP DP  RH WIND       PRES   REMARKS
LITTLE ROCK    CLOUDY    81  65  58 S14       29.81F
N LITTLE ROCK    N/A     80  68  67 S9        29.79F
JACKSONVILLE   CLOUDY    78  71  78 SE12G20   29.80F
SEARCY         CLOUDY    75  72  88 S15       29.84F
HOT SPRINGS    CLOUDY    75  64  68 S10G22    29.81S
RUSSELLVILLE   CLOUDY    78  65  63 S8G18     29.78S
CLINTON        PTSUNNY   79  70  73 SE9       29.80S
$$

ARZ036-272100-
EAST ARKANSAS

CITY           SKY/WX    TMP DP  RH WIND       PRES   REMARKS
WEST MEMPHIS   CLOUDY    77  70  79 S7        29.89R
$$

ARZ050-053-066-070-073-272100-
SOUTHWEST ARKANSAS

CITY           SKY/WX    TMP DP  RH WIND       PRES   REMARKS
ARKADELPHIA    FAIR      73  69  87 S13       29.82F
CAMDEN         RAIN      72  68  88 SW7       29.87S
TEXARKANA      LGT RAIN  67  65  93 SE13      29.80F
EL DORADO      LGT RAIN  72  70  93 SW5       29.90S
DE QUEEN       CLOUDY    71  65  81 SE8G21    29.69F
$$

ARZ056-057-069-272100-
SOUTHEAST ARKANSAS

CITY           SKY/WX    TMP DP  RH WIND       PRES   REMARKS
PINE BLUFF     PTSUNNY   76  72  87 S8        29.85F
STUTTGART      CLOUDY    72  66  83 S13       29.86F
MONTICELLO     TSTM      71  69  93 SW8       29.87F

$$






USA.gov is the U.S. government's official web portal to all federal, state and local government web resources and services.